Zurück zum Katalog

DELTA 1 DEB

AktivSSO
NORAD 13573·DEBRIS·🇺🇸 United States

Gestartet Mar 5, 1978 von Vandenberg Space Force Base

Loading…

Nächste Überflüge (nächste 24 Stunden)

TLE

AktuellSource: Space-Track

Epoche: Sep 14, 2026, 13:21 UTC

1 13573U 78026FL  26257.55653756  .00000016  00000-0  46111-4 0  9990
2 13573  98.7875 106.9033 0073079  30.0935 359.5515 13.89086873295735

Verfolge DELTA 1 DEB in Echtzeit mit AllMySat

Download on the App Store